| time (UTC) | temp F | wind direction | speed knots | gust knots | rain 1hr in | rain 24hr in | rain mn in | humidity % | barometer mb |
| 20260506172006 | 46 | 185 | 7.0 | 7.8 | 0.00 | 0.00 | 0.00 | 68 | 1016.1 |
| 20260506171006 | 47 | 200 | 7.0 | 7.8 | 0.00 | 0.00 | 0.00 | 67 | 1015.8 |
| 20260506170006 | 47 | 189 | 7.8 | 9.6 | 0.00 | 0.00 | 0.00 | 67 | 1015.9 |
| 20260506165005 | 47 | 188 | 7.8 | 9.6 | 0.00 | 0.00 | 0.00 | 68 | 1015.9 |
| 20260506164005 | 47 | 178 | 7.8 | 9.6 | 0.00 | 0.00 | 0.00 | 68 | 1016.0 |
| 20260506163005 | 47 | 183 | 9.6 | 9.6 | 0.00 | 0.00 | 0.00 | 67 | 1015.7 |
| 20260506162005 | 48 | 185 | 10.4 | 11.3 | 0.00 | 0.00 | 0.00 | 65 | 1016.0 |
| 20260506161005 | 48 | 179 | 11.3 | 13.9 | 0.00 | 0.00 | 0.00 | 64 | 1015.9 |
| 20260506160005 | 48 | 191 | 10.4 | 13.9 | 0.00 | 0.00 | 0.00 | 63 | 1015.9 |
| 20260506154005 | 49 | 172 | 9.6 | 13.0 | 0.00 | 0.00 | 0.00 | 66 | 1015.9 |
| 20260506153005 | 49 | 167 | 12.2 | 14.8 | 0.00 | 0.00 | 0.00 | 65 | 1016.0 |
| 20260506152005 | 49 | 186 | 10.4 | 13.0 | 0.00 | 0.00 | 0.00 | 65 | 1016.2 |
| 20260506151006 | 51 | 175 | 8.7 | 11.3 | 0.00 | 0.00 | 0.00 | 63 | 1016.1 |
| 20260506150006 | 50 | 204 | 10.4 | 13.0 | 0.00 | 0.00 | 0.00 | 63 | 1016.0 |
| 20260506145006 | 50 | 175 | 9.6 | 12.2 | 0.00 | 0.00 | 0.00 | 63 | 1016.2 |
| 20260506144006 | 49 | 172 | 11.3 | 15.6 | 0.00 | 0.00 | 0.00 | 63 | 1016.1 |
| 20260506143006 | 50 | 175 | 10.4 | 13.0 | 0.00 | 0.00 | 0.00 | 65 | 1016.2 |
| 20260506142006 | 50 | 185 | 11.3 | 13.0 | 0.00 | 0.00 | 0.00 | 64 | 1015.9 |
| 20260506140005 | 50 | 149 | 9.6 | 13.9 | 0.00 | 0.00 | 0.00 | 58 | 1016.1 |
| 20260506135005 | 51 | 185 | 5.2 | 7.8 | 0.00 | 0.00 | 0.00 | 56 | 1016.3 |
| 20260506134005 | 50 | 191 | 8.7 | 13.9 | 0.00 | 0.00 | 0.00 | 55 | 1016.3 |
| 20260506132005 | 52 | 159 | 10.4 | 13.0 | 0.00 | 0.00 | 0.00 | 52 | 1016.2 |
| 20260506130006 | 51 | 163 | 8.7 | 12.2 | 0.00 | 0.00 | 0.00 | 57 | 1016.3 |
| 20260506125006 | 50 | 186 | 9.6 | 12.2 | 0.00 | 0.00 | 0.00 | 58 | 1016.5 |
| 20260506124006 | 50 | 174 | 12.2 | 13.0 | 0.00 | 0.00 | 0.00 | 62 | 1016.4 |
| 20260506123006 | 50 | 172 | 13.0 | 15.6 | 0.00 | 0.00 | 0.00 | 58 | 1016.6 |
| 20260506122006 | 50 | 179 | 13.9 | 17.4 | 0.00 | 0.00 | 0.00 | 56 | 1016.7 |
| 20260506121005 | 51 | 156 | 14.8 | 18.2 | 0.00 | 0.00 | 0.00 | 51 | 1016.7 |
| 20260506120005 | 50 | 162 | 13.0 | 15.6 | 0.00 | 0.00 | 0.00 | 56 | 1016.6 |
| 20260506114005 | 51 | 170 | 11.3 | 13.9 | 0.00 | 0.00 | 0.00 | 53 | 1016.9 |
| 20260506113005 | 51 | 187 | 12.2 | 14.8 | 0.00 | 0.00 | 0.00 | 55 | 1016.9 |
| 20260506112005 | 51 | 182 | 11.3 | 13.9 | 0.00 | 0.00 | 0.00 | 52 | 1016.7 |
| 20260506111005 | 51 | 174 | 13.0 | 15.6 | 0.00 | 0.00 | 0.00 | 51 | 1016.6 |
| 20260506110005 | 52 | 158 | 12.2 | 15.6 | 0.00 | 0.00 | 0.00 | 51 | 1016.8 |
| 20260506105005 | 51 | 182 | 10.4 | 12.2 | 0.00 | 0.00 | 0.00 | 50 | 1016.6 |
| 20260506104005 | 51 | 192 | 9.6 | 11.3 | 0.00 | 0.00 | 0.00 | 51 | 1016.9 |
| 20260506103006 | 51 | 202 | 10.4 | 15.6 | 0.00 | 0.00 | 0.00 | 50 | 1016.7 |
| 20260506102005 | 51 | 190 | 11.3 | 15.6 | 0.00 | 0.00 | 0.00 | 50 | 1016.6 |
| 20260506101005 | 44 | 226 | 1.7 | 6.1 | 0.00 | 0.00 | 0.00 | 65 | 1016.5 |
| 20260506100005 | 44 | 226 | 1.7 | 6.1 | 0.00 | 0.00 | 0.00 | 65 | 1016.5 |
| 20260506095005 | 44 | 226 | 1.7 | 6.1 | 0.00 | 0.00 | 0.00 | 65 | 1016.5 |
| 20260506093005 | 44 | 226 | 1.7 | 6.1 | 0.00 | 0.00 | 0.00 | 65 | 1016.5 |
| 20260506092005 | 44 | 226 | 1.7 | 6.1 | 0.00 | 0.00 | 0.00 | 65 | 1016.5 |
| 20260506091005 | 44 | 226 | 1.7 | 6.1 | 0.00 | 0.00 | 0.00 | 65 | 1016.5 |
| 20260506090005 | 44 | 226 | 1.7 | 6.1 | 0.00 | 0.00 | 0.00 | 65 | 1016.5 |
| 20260506085005 | 44 | 226 | 1.7 | 6.1 | 0.00 | 0.00 | 0.00 | 65 | 1016.5 |
| 20260506084005 | 44 | 226 | 1.7 | 6.1 | 0.00 | 0.00 | 0.00 | 65 | 1016.5 |
| 20260506083006 | 44 | 226 | 1.7 | 6.1 | 0.00 | 0.00 | 0.00 | 65 | 1016.5 |
| 20260506082005 | 44 | 226 | 1.7 | 6.1 | 0.00 | 0.00 | 0.00 | 65 | 1016.5 |
| 20260506081006 | 44 | 226 | 1.7 | 6.1 | 0.00 | 0.00 | 0.00 | 65 | 1016.5 |
| 20260506073005 | 44 | 226 | 1.7 | 6.1 | 0.00 | 0.00 | 0.00 | 65 | 1016.5 |
| 20260506071005 | 44 | 226 | 1.7 | 6.1 | 0.00 | 0.00 | 0.00 | 65 | 1016.5 |
| 20260506061005 | 44 | 226 | 1.7 | 6.1 | 0.00 | 0.00 | 0.00 | 65 | 1016.5 |
| 20260506051005 | 44 | 226 | 1.7 | 6.1 | 0.00 | 0.00 | 0.00 | 65 | 1016.5 |
| 20260506044005 | 44 | 226 | 1.7 | 6.1 | 0.00 | 0.00 | 0.00 | 65 | 1016.5 |
| 20260506043006 | 44 | 226 | 1.7 | 6.1 | 0.00 | 0.00 | 0.00 | 65 | 1016.5 |
| 20260506041005 | 44 | 226 | 1.7 | 6.1 | 0.00 | 0.00 | 0.00 | 65 | 1016.5 |
| 20260506040005 | 44 | 226 | 1.7 | 6.1 | 0.00 | 0.00 | 0.00 | 65 | 1016.5 |
| 20260506034005 | 44 | 226 | 1.7 | 6.1 | 0.00 | 0.00 | 0.00 | 65 | 1016.5 |
| 20260506033006 | 44 | 226 | 1.7 | 6.1 | 0.00 | 0.00 | 0.00 | 65 | 1016.5 |
| 20260506032005 | 44 | 226 | 1.7 | 6.1 | 0.00 | 0.00 | 0.00 | 65 | 1016.5 |
| 20260506031006 | 44 | 226 | 1.7 | 6.1 | 0.00 | 0.00 | 0.00 | 65 | 1016.5 |
| 20260506030006 | 44 | 226 | 1.7 | 6.1 | 0.00 | 0.00 | 0.00 | 65 | 1016.5 |
| 20260506025005 | 44 | 226 | 1.7 | 6.1 | 0.00 | 0.00 | 0.00 | 65 | 1016.5 |
| 20260506024005 | 44 | 226 | 1.7 | 6.1 | 0.00 | 0.00 | 0.00 | 65 | 1016.5 |
| 20260506023005 | 44 | 226 | 1.7 | 6.1 | 0.00 | 0.00 | 0.00 | 65 | 1016.5 |
| 20260506022005 | 44 | 226 | 1.7 | 6.1 | 0.00 | 0.00 | 0.00 | 65 | 1016.5 |
| 20260506015005 | 44 | 226 | 1.7 | 6.1 | 0.00 | 0.00 | 0.00 | 65 | 1016.5 |
| 20260506014005 | 44 | 226 | 1.7 | 6.1 | 0.00 | 0.00 | 0.00 | 65 | 1016.5 |
| 20260506013005 | 44 | 226 | 1.7 | 6.1 | 0.00 | 0.00 | 0.00 | 65 | 1016.5 |
| 20260506012005 | 44 | 226 | 1.7 | 6.1 | 0.00 | 0.00 | 0.00 | 65 | 1016.5 |
| 20260506011005 | 44 | 226 | 1.7 | 6.1 | 0.00 | 0.00 | 0.00 | 65 | 1016.5 |
| 20260506010005 | 44 | 226 | 1.7 | 6.1 | 0.00 | 0.00 | 0.00 | 65 | 1016.5 |
| 20260506005006 | 44 | 226 | 1.7 | 6.1 | 0.00 | 0.00 | 0.00 | 65 | 1016.5 |
| 20260506004005 | 44 | 226 | 1.7 | 6.1 | 0.00 | 0.00 | 0.00 | 65 | 1016.5 |
| 20260506003005 | 44 | 226 | 1.7 | 6.1 | 0.00 | 0.00 | 0.00 | 65 | 1016.5 |
| 20260506002005 | 44 | 226 | 1.7 | 6.1 | 0.00 | 0.00 | 0.00 | 65 | 1016.5 |
| 20260506001005 | 44 | 226 | 1.7 | 6.1 | 0.00 | 0.00 | 0.00 | 65 | 1016.5 |
| 20260506000005 | 44 | 226 | 1.7 | 6.1 | 0.00 | 0.00 | 0.00 | 65 | 1016.5 |
| 20260505235005 | 44 | 226 | 1.7 | 6.1 | 0.00 | 0.00 | 0.00 | 65 | 1016.5 |
| 20260505234005 | 44 | 226 | 1.7 | 6.1 | 0.00 | 0.00 | 0.00 | 65 | 1016.5 |
| 20260505233007 | 44 | 226 | 1.7 | 6.1 | 0.00 | 0.00 | 0.00 | 65 | 1016.5 |
| 20260505232005 | 44 | 226 | 1.7 | 6.1 | 0.00 | 0.00 | 0.00 | 65 | 1016.5 |
| 20260505231005 | 44 | 226 | 1.7 | 6.1 | 0.00 | 0.00 | 0.00 | 65 | 1016.5 |
| 20260505230005 | 44 | 226 | 1.7 | 6.1 | 0.00 | 0.00 | 0.00 | 65 | 1016.5 |
| 20260505224005 | 44 | 226 | 1.7 | 6.1 | 0.00 | 0.00 | 0.00 | 65 | 1016.5 |
| 20260505223005 | 44 | 226 | 1.7 | 6.1 | 0.00 | 0.00 | 0.00 | 65 | 1016.5 |
| 20260505221005 | 44 | 226 | 1.7 | 6.1 | 0.00 | 0.00 | 0.00 | 65 | 1016.5 |
| 20260505220006 | 44 | 226 | 1.7 | 6.1 | 0.00 | 0.00 | 0.00 | 65 | 1016.5 |
| 20260505214005 | 44 | 226 | 1.7 | 6.1 | 0.00 | 0.00 | 0.00 | 65 | 1016.5 |
| 20260505213005 | 44 | 226 | 1.7 | 6.1 | 0.00 | 0.00 | 0.00 | 65 | 1016.5 |
| 20260505212005 | 44 | 226 | 1.7 | 6.1 | 0.00 | 0.00 | 0.00 | 65 | 1016.5 |
| 20260505210006 | 44 | 226 | 1.7 | 6.1 | 0.00 | 0.00 | 0.00 | 65 | 1016.5 |
| 20260505205005 | 44 | 226 | 1.7 | 6.1 | 0.00 | 0.00 | 0.00 | 65 | 1016.5 |
| 20260505204005 | 44 | 226 | 1.7 | 6.1 | 0.00 | 0.00 | 0.00 | 65 | 1016.5 |
| 20260505203005 | 44 | 226 | 1.7 | 6.1 | 0.00 | 0.00 | 0.00 | 65 | 1016.5 |
| 20260505202005 | 44 | 226 | 1.7 | 6.1 | 0.00 | 0.00 | 0.00 | 65 | 1016.5 |
| 20260505200005 | 44 | 226 | 1.7 | 6.1 | 0.00 | 0.00 | 0.00 | 65 | 1016.5 |
| 20260505195005 | 44 | 226 | 1.7 | 6.1 | 0.00 | 0.00 | 0.00 | 65 | 1016.5 |
| 20260505194004 | 44 | 226 | 1.7 | 6.1 | 0.00 | 0.00 | 0.00 | 65 | 1016.5 |
| 20260505193005 | 44 | 226 | 1.7 | 6.1 | 0.00 | 0.00 | 0.00 | 65 | 1016.5 |
| 20260505192005 | 44 | 226 | 1.7 | 6.1 | 0.00 | 0.00 | 0.00 | 65 | 1016.5 |
| 20260505191005 | 44 | 226 | 1.7 | 6.1 | 0.00 | 0.00 | 0.00 | 65 | 1016.5 |
| 20260505190005 | 44 | 226 | 1.7 | 6.1 | 0.00 | 0.00 | 0.00 | 65 | 1016.5 |
| 20260505185005 | 44 | 226 | 1.7 | 6.1 | 0.00 | 0.00 | 0.00 | 65 | 1016.5 |
| 20260505181005 | 44 | 226 | 1.7 | 6.1 | 0.00 | 0.00 | 0.00 | 65 | 1016.5 |
| 20260505180005 | 44 | 226 | 1.7 | 6.1 | 0.00 | 0.00 | 0.00 | 65 | 1016.5 |
| 20260505174005 | 44 | 226 | 1.7 | 6.1 | 0.00 | 0.00 | 0.00 | 65 | 1016.5 |
| 20260505173005 | 44 | 203 | 0.9 | 3.5 | 0.00 | 0.00 | 0.00 | 65 | 1016.8 |